TJS-2

Last updated on Sat Dec 13 2025 00:02:49 GMT+0000 (Coordinated Universal Time)

1 41911U 17001A 25346.21812543 .00000004 00000+0 00000+0 0 9993 2 41911 0.3495 88.3460 0002542 198.2527 299.5617 1.00269718 32845
UTC large
Height (km)
Speed (km/s)
/
Latitude / Longitude
Inclination (degrees)
Orbital Period (minutes)
Azimuth
Elevation
Range (km)
Doppler Factor

Next 0 passes for location: London (51.5072 / 0.1276)

Sorry there are no passes over London.